[[{"header":{"parameterUnit":"m.s-1","parameterCategory":1,"la1":30.2991,"la2":30.254,"lo1":-89.0895,"lo2":-89.0444,"dy":0.0017,"dx":0.0017,"nx":28,"ny":28,"refTime":"2024-04-10T03:00:00:Z","depth":0,"parameterNumber":2,"parameterNumberName":"U-component_of_WINDS"},"data":[0,0,0,0,0,0,0,0,0,0,0,0,0,0,0,0,0,0,0,0,0,0,0,0,0,0,0,0,0,0,0,0,0,0,0,0,0,0,0,0,0,0,0,0,0,0,0,0,0,0,0,0,0,0,0,0,0,0,-6.611,-6.6112,0,-6.6214,-6.6215,-6.6216,-6.62,-6.6199,-6.6197,-6.6195,-6.6296,-6.6301,-6.6305,0,0,0,0,0,0,0,0,0,0,0,0,0,-6.5894,-6.5898,-6.611,-6.6112,-6.6113,-6.6214,-6.6215,-6.6217,-6.6201,-6.6199,-6.6196,-6.6194,-6.6295,-6.63,-6.6305,0,0,0,0,0,0,0,0,0,0,0,0,0,-6.5992,-6.59,-6.611,-6.6117,-6.6119,-6.6214,-6.6215,-6.6217,-6.6201,-6.6199,-6.6196,-6.6193,-6.6293,-6.6299,-6.6306,-6.6398,0,0,-6.6326,-6.6329,0,0,0,0,0,0,0,0,-6.5986,-6.6,-6.6115,-6.6117,-6.6119,-6.6192,-6.6176,-6.6278,-6.6202,-6.617,-6.6195,-6.6192,-6.6263,-6.6272,-6.6297,-6.6403,-6.6408,-6.6326,-6.633,-6.6333,-6.6335,0,0,0,0,0,0,0,-6.598,-6.5995,-6.6151,-6.6117,-6.6119,-6.6114,-6.6125,-6.6195,-6.623,-6.6172,-6.6171,-6.6184,-6.6264,-6.6291,-6.6299,-6.6409,-6.6326,-6.6332,-6.6336,-6.6338,-6.6596,-6.6599,0,0,0,0,0,0,-6.5972,-6.599,-6.6148,-6.6154,-6.6045,-6.612,-6.6132,-6.6171,-6.6229,-6.6236,-6.6186,-6.6183,-6.6281,-6.6292,-6.6303,-6.6414,-6.6333,-6.6339,-6.6343,-6.6593,-6.6597,-6.66,0,0,0,0,0,0,-6.5967,-6.5986,-6.6144,-6.6072,-6.6092,-6.6127,-6.617,-6.6174,-6.6201,-6.624,-6.6245,-6.6208,-6.6279,-6.6294,-6.6375,-6.6418,-6.6342,-6.6348,-6.659,-6.6594,-6.6598,-6.6638,0,0,0,0,0,0,-6.5961,-6.5984,-6.6021,-6.6073,-6.6096,-6.6215,-6.6173,-6.6178,-6.6213,-6.621,-6.6261,-6.6267,-6.6279,-6.6366,-6.6382,-6.6425,-6.6353,-6.6586,-6.6592,-6.6597,-6.6633,-6.6644,-6.6652,0,0,0,0,0,-6.5953,-6.6027,-6.6022,-6.6042,-6.6142,-6.6218,-6.6231,-6.6244,-6.6217,-6.6253,-6.6278,-6.6266,-6.6411,-6.6374,-6.6392,-6.6438,-6.6583,-6.659,-6.6597,-6.6629,-6.6642,-6.6652,0,0,0,0,0,0,-6.5976,-6.6033,-6.6029,-6.6122,-6.6166,-6.6215,-6.6261,-6.6256,-6.6307,-6.6301,-6.6314,-6.6326,-6.6408,-6.6432,-6.6389,-6.6531,-6.6493,-6.6504,-6.6512,-6.6524,-6.6533,-6.6525,-6.6358,0,0,0,0,0,-6.5992,-6.6051,-6.6097,-6.6174,-6.6197,-6.6225,-6.6259,-6.6266,-6.631,-6.6328,-6.6358,-6.6401,-6.6456,-6.6492,-6.6545,-6.6638,-6.6648,-6.6679,-6.6688,-6.6696,-6.6704,-6.6754,-6.6768,-6.6622,-6.6622,-6.6622,0,0,-6.6025,-6.6064,-6.61,-6.618,-6.6214,-6.6273,-6.6241,-6.6304,-6.6347,-6.6337,-6.6415,-6.644,-6.6488,-6.6576,-6.6616,-6.6598,-6.6747,-6.6704,-6.671,-6.6714,-6.6762,-6.6776,-6.6788,-6.6626,-6.6626,-6.6625,0,0,-6.6115,-6.6151,-6.6219,-6.6255,-6.6308,-6.6327,-6.6344,-6.6395,-6.6411,-6.6491,-6.6485,-6.6536,-6.6631,-6.6666,-6.6696,-6.6802,-6.6792,-6.6819,-6.6867,-6.6916,-6.6928,-6.6938,-6.6974,-6.6987,-6.6827,-6.6827,-6.6827,0,-6.6148,-6.6238,-6.6254,-6.6319,-6.6354,-6.6351,-6.6419,-6.6452,-6.6519,-6.6543,-6.6523,-6.6643,-6.6675,-6.677,-6.6797,-6.6822,-6.684,-6.6811,-6.6925,-6.6935,-6.6945,-6.698,-6.6993,-6.683,-6.683,-6.6829,-6.6829,0,-6.6276,-6.6339,-6.6388,-6.6455,-6.6496,-6.6562,-6.6587,-6.6626,-6.663,-6.6651,-6.6732,-6.6771,-6.6832,-6.6856,-6.6859,-6.6952,-6.6939,-6.6922,-6.6884,-6.6961,-6.6994,-6.7007,-6.6834,-6.6833,-6.6832,-6.6832,0,0,-6.638,-6.6458,-6.6475,-6.6505,-6.6565,-6.6613,-6.6679,-6.6741,-6.6773,-6.6821,-6.6875,-6.6957,-6.6942,-6.6977,-6.6984,-6.7028,-6.7108,-6.7005,-6.7007,-6.7021,-6.721,-6.7221,-6.7236,-6.7103,-6.7106,-6.7108,-6.7206,0,-6.6474,-6.6592,-6.661,-6.6713,-6.677,-6.6769,-6.6826,-6.6869,-6.6891,-6.6941,-6.6965,-6.7022,-6.6999,-6.702,-6.7063,-6.7089,-6.7145,-6.7082,-6.7152,-6.7154,-6.7137,-6.7253,-6.7265,-6.7355,-6.7219,-6.7221,-6.7223,0,-6.6599,-6.6652,-6.6761,-6.6814,-6.6839,-6.689,-6.6948,-6.6998,-6.7045,-6.7058,-6.7098,-6.7101,-6.7168,-6.713,-6.7223,-6.7179,-6.7209,-6.7227,-6.723,-6.7235,-6.7191,-6.7259,-6.7384,-6.7397,-6.7243,-6.7241,-6.724,0,-6.6661,-6.676,-6.6838,-6.6865,-6.6928,-6.6964,-6.6992,-6.7038,-6.7074,-6.7125,-6.7148,-6.7206,-6.7236,-6.728,-6.7299,-6.727,-6.7389,-6.7353,-6.74,-6.74,-6.7422,-6.742,-6.7552,-6.7447,-6.7446,-6.7446,-6.7446,0,-6.6763,-6.6829,-6.6867,-6.6915,-6.6989,-6.7009,-6.7082,-6.7108,-6.715,-6.7202,-6.7204,-6.7253,-6.7275,-6.7327,-6.7342,-6.7415,-6.743,-6.744,-6.7443,-6.7439,-6.7437,-6.7456,-6.7449,-6.745,-6.7449,-6.7448,-6.7448,0,-6.6843,-6.6872,-6.6957,-6.7011,-6.7027,-6.7079,-6.7125,-6.7171,-6.7194,-6.726,-6.7276,-6.7311,-6.7373,-6.7396,-6.7471,-6.7481,-6.7565,-6.7563,-6.7549,-6.7549,-6.7594,-6.7588,-6.774,-6.776,-6.7644,-6.7645,-6.7646,0,-6.6905,-6.6957,-6.7018,-6.7054,-6.7083,-6.7141,-6.7179,-6.7201,-6.7239,-6.7299,-6.7337,-6.7399,-6.7449,-6.7547,-6.7578,-6.7635,-6.7634,-6.7683,-6.7642,-6.7636,-6.7632,-6.7628,-6.7632,-6.769,-6.7691,-6.7692,-6.7693,0,-6.7011,-6.7023,-6.7078,-6.7138,-6.7183,-6.7231,-6.7278,-6.7307,-6.7336,-6.7379,-6.7443,-6.7482,-6.7559,-6.762,-6.7679,-6.7706,-6.7704,-6.7706,-6.772,-6.7714,-6.7703,-6.7708,-6.7567,-6.7702,-6.7701,-6.77,-6.7699,-6.7699,-6.7082,-6.7128,-6.7179,-6.724,-6.7278,-6.7322,-6.7367,-6.7397,-6.7451,-6.7517,-6.7526,-6.7594,-6.7641,-6.7721,-6.7751,-6.7804,-6.779,-6.7811,-6.7815,-6.7819,-6.7821,-6.7697,-6.7815,-6.7815,-6.7815,-6.7814,-6.7814,0,-6.7187,-6.722,-6.7276,-6.7342,-6.739,-6.7387,-6.7439,-6.7478,-6.7539,-6.7584,-6.7634,-6.7707,-6.7767,-6.7804,-6.7864,-6.7898,-6.7899,-6.7913,-6.7909,-6.7915,-6.7831,-6.7812,-6.7912,-6.7912,-6.7912,-6.7912,-6.7912,-6.7912,-6.7246,-6.7323,-6.7341,-6.7437,-6.7469,-6.7537,-6.7567,-6.7607,-6.7643,-6.7726,-6.7776,-6.78,-6.7842,-6.7905,-6.7959,-6.7969,-6.7989,-6.8004,-6.8012,-6.7932,-6.7921,-6.7912,-6.7894,-6.8009,-6.8009,-6.8092,-6.8093,-6.8093]},{"header":{"parameterUnit":"m.s-1","parameterCategory":1,"la1":30.2991,"la2":30.254,"lo1":-89.0895,"lo2":-89.0444,"dy":0.0017,"dx":0.0017,"nx":28,"ny":28,"refTime":"2024-04-10T03:00:00:Z","depth":0,"parameterNumber":3,"parameterNumberName":"V-component_of_WINDS"},"data":[0,0,0,0,0,0,0,0,0,0,0,0,0,0,0,0,0,0,0,0,0,0,0,0,0,0,0,0,0,0,0,0,0,0,0,0,0,0,0,0,0,0,0,0,0,0,0,0,0,0,0,0,0,0,0,0,0,0,5.3111,5.3111,0,5.3147,5.3148,5.3148,5.3098,5.3097,5.3095,5.3093,5.3129,5.3131,5.3134,0,0,0,0,0,0,0,0,0,0,0,0,0,5.2997,5.2999,5.3111,5.3111,5.3111,5.3147,5.3148,5.3148,5.3099,5.3097,5.3094,5.3092,5.3128,5.3131,5.3134,0,0,0,0,0,0,0,0,0,0,0,0,0,5.3041,5.3,5.311,5.3091,5.309,5.3147,5.3148,5.3148,5.3099,5.3097,5.3094,5.3091,5.3127,5.3131,5.3134,5.3212,0,0,5.3146,5.3148,0,0,0,0,0,0,0,0,5.3039,5.3046,5.3094,5.3093,5.3091,5.3116,5.3121,5.3169,5.31,5.3096,5.3093,5.309,5.3126,5.313,5.3143,5.3213,5.3215,5.3147,5.3149,5.3151,5.3152,0,0,0,0,0,0,0,5.3036,5.3044,5.3125,5.3094,5.3093,5.308,5.3084,5.313,5.3125,5.3096,5.3092,5.3097,5.3125,5.3139,5.3143,5.3215,5.3147,5.315,5.3152,5.3154,5.3353,5.3356,0,0,0,0,0,0,5.3035,5.3041,5.3124,5.3126,5.3058,5.3085,5.3088,5.311,5.3125,5.3124,5.31,5.3095,5.3134,5.3139,5.3144,5.3237,5.3151,5.3154,5.3157,5.335,5.3354,5.3357,0,0,0,0,0,0,5.3033,5.3043,5.3122,5.3083,5.3092,5.3089,5.3115,5.3113,5.3126,5.3128,5.3126,5.3115,5.3132,5.3139,5.3196,5.3238,5.3156,5.316,5.3347,5.3352,5.3356,5.3423,0,0,0,0,0,0,5.303,5.3043,5.3072,5.3084,5.3094,5.3174,5.3117,5.3115,5.3134,5.3128,5.3142,5.3141,5.313,5.319,5.32,5.3242,5.3163,5.3343,5.3349,5.3354,5.3417,5.3429,5.344,0,0,0,0,0,5.3026,5.3089,5.3074,5.3084,5.3131,5.3176,5.3182,5.3169,5.3137,5.3167,5.3168,5.3141,5.3232,5.3197,5.3207,5.3251,5.334,5.3347,5.3354,5.3412,5.3427,5.344,0,0,0,0,0,0,5.308,5.309,5.3073,5.3141,5.3159,5.3168,5.3205,5.3185,5.3211,5.3204,5.3186,5.3189,5.3251,5.3256,5.3217,5.3327,5.3281,5.329,5.3322,5.3336,5.3347,5.3345,5.3166,0,0,0,0,0,5.31,5.3137,5.3143,5.3202,5.3212,5.3207,5.3226,5.3215,5.3231,5.3238,5.3243,5.326,5.3293,5.3314,5.3344,5.3418,5.3421,5.3453,5.3464,5.3473,5.3482,5.3523,5.3538,5.3379,5.3379,5.3379,0,0,5.3142,5.3151,5.3175,5.3214,5.3225,5.3264,5.3213,5.3255,5.3284,5.3244,5.3299,5.3304,5.3321,5.3388,5.3417,5.3394,5.3526,5.3482,5.3489,5.3492,5.3531,5.3546,5.356,5.3384,5.3383,5.3382,0,0,5.3237,5.3248,5.33,5.3313,5.3333,5.3329,5.3342,5.3355,5.3357,5.3412,5.3384,5.3417,5.3472,5.3487,5.3501,5.3605,5.3582,5.3615,5.3674,5.3715,5.3727,5.3738,5.3777,5.379,5.3623,5.3623,5.3623,0,5.3286,5.3343,5.3329,5.3374,5.3392,5.3359,5.3412,5.3425,5.3453,5.3467,5.344,5.3511,5.3521,5.3591,5.3617,5.3629,5.3643,5.3613,5.3727,5.3737,5.3747,5.3784,5.3798,5.3627,5.3627,5.3626,5.3626,0,5.3404,5.3444,5.3483,5.3513,5.3535,5.3584,5.3577,5.3601,5.3588,5.3588,5.3645,5.3655,5.3688,5.3703,5.369,5.3773,5.3758,5.3729,5.3683,5.3767,5.3801,5.3815,5.3633,5.3631,5.363,5.3629,0,0,5.3534,5.3556,5.3571,5.3585,5.3604,5.3635,5.3682,5.3715,5.3737,5.3758,5.3798,5.3847,5.3821,5.3838,5.3826,5.3862,5.3945,5.3829,5.3829,5.3852,5.4039,5.4061,5.4077,5.393,5.3932,5.3934,5.4038,0,5.3631,5.3714,5.3703,5.3783,5.3821,5.3791,5.3833,5.3849,5.3851,5.3883,5.3883,5.3919,5.3882,5.3892,5.3926,5.3928,5.3983,5.392,5.3968,5.3969,5.3966,5.4095,5.4118,5.4215,5.4051,5.4053,5.4055,0,5.3755,5.3782,5.3866,5.3882,5.3898,5.3935,5.3965,5.3996,5.4015,5.4013,5.4033,5.4016,5.4064,5.4016,5.4082,5.404,5.4059,5.4063,5.4066,5.4071,5.4018,5.4105,5.4246,5.4261,5.4075,5.4073,5.4072,0,5.3844,5.3901,5.3959,5.3972,5.3991,5.4019,5.4028,5.4044,5.4065,5.4091,5.4105,5.4136,5.4153,5.4177,5.4169,5.4135,5.4238,5.4189,5.4239,5.4239,5.4263,5.4262,5.441,5.4273,5.4272,5.4272,5.4272,0,5.3954,5.4008,5.4,5.4036,5.4095,5.4082,5.4141,5.4146,5.4161,5.4198,5.4173,5.4208,5.4194,5.4228,5.4222,5.4279,5.4286,5.4287,5.4285,5.429,5.429,5.4303,5.4296,5.4276,5.4275,5.4274,5.4274,0,5.4064,5.4061,5.4123,5.4137,5.4142,5.4185,5.4197,5.4231,5.423,5.4277,5.4288,5.4287,5.4326,5.432,5.4363,5.4359,5.4431,5.4419,5.4425,5.4423,5.4474,5.447,5.4637,5.4659,5.4506,5.4507,5.4508,0,5.4136,5.4176,5.4195,5.4219,5.423,5.4268,5.429,5.4279,5.4302,5.4328,5.4359,5.4396,5.4426,5.449,5.4493,5.4526,5.4516,5.4573,5.4521,5.4526,5.4519,5.4518,5.4523,5.4583,5.4585,5.4586,5.4588,0,5.4263,5.426,5.4293,5.4327,5.4354,5.4379,5.4402,5.4422,5.4413,5.4441,5.4482,5.4505,5.4549,5.4587,5.4619,5.4627,5.4607,5.4604,5.4617,5.4624,5.4626,5.4628,5.4454,5.46,5.4599,5.4598,5.4597,5.4597,5.4357,5.4393,5.4413,5.4451,5.4467,5.4489,5.4523,5.4527,5.4561,5.4598,5.4588,5.4635,5.4653,5.4694,5.4706,5.4742,5.4722,5.4741,5.4746,5.4751,5.4759,5.462,5.4748,5.4747,5.4747,5.4747,5.4746,0,5.4486,5.4497,5.4532,5.4566,5.4596,5.4574,5.4599,5.4626,5.4667,5.4687,5.4717,5.4764,5.4801,5.4807,5.4842,5.487,5.4862,5.488,5.4878,5.4881,5.4774,5.476,5.4886,5.4886,5.4886,5.4886,5.4886,5.4886,5.4556,5.4616,5.4616,5.4683,5.4694,5.474,5.4756,5.4777,5.4793,5.4847,5.4878,5.4882,5.4897,5.4934,5.4967,5.4968,5.4982,5.5005,5.5002,5.4902,5.4889,5.4875,5.4862,5.5008,5.5008,5.5107,5.5108,5.5108]}]]